Home > Time Zones > World Clock > Weather > Germany > Ulm > Past weeks

Flag for Germany Weather past 2 weeks in Ulm, Baden-Württemberg, Germany

Now
5 °F

Frigid.


Feels Like: 5 °F
Forecast: 11 / 29 °F
Wind: 2 mph from Southwest

Location: Laupheim Airport

Current Time: Dec 29, 2014 at 3:34:46 AM

Latest Report: Dec 29, 2014 at 2:20 AM


Visibility: 0 mi

Pressure: 30.42 "Hg

Humidity: 92%

Dew point: 3 °F

Location of UlmLocation

Historic Weather in Ulm — Graph

°F

Ulm temperature yesterday

Maximum temperature yesterday: 32 °F (at 1:20 AM)
Minimum temperature yesterday: 5 °F (at 11:20 PM)
Average temperature yesterday: 22 °F

Past Weeks' High & Low Weather Summary

 TemperatureHumidityPressure
High54 °F (Dec 23, 1:20 PM)100% (Dec 15, 3:20 AM)30.51 "Hg (Dec 15, 3:20 AM)
Low5 °F (Dec 28, 11:20 PM)41% (Dec 23, 1:20 PM)29.42 "Hg (Dec 27, 4:20 PM)
Average39 °F84%30.11 "Hg
* Reported Dec 14 2:20 AM — Dec 29 2:20 AM, Ulm, Weather by CustomWeather, © 2014

Note: Actual official high and low records may vary slightly from our data, if they occured in-between our weather recording intervals... More about our weather records

Advertising

Ulm weather history for previous 24 hours

 ConditionsComfort  
Time TempWeatherWind HumidityBarometerVisibility
2:20 AM
Dec 29
5 °FFrigid.2 mph92%30.42 "Hg0 mi
1:20 AM5 °FFrigid.2 mph92%30.39 "Hg0 mi
12:20 AM5 °FFrigid.1 mph85%30.39 "Hg3 mi
11:20 PM
Dec 28
5 °FFrigid.1 mph92%30.39 "Hg2 mi
10:20 PM7 °FFrigid.2 mph92%30.36 "Hg3 mi
9:20 PM9 °FFrigid.2 mph92%30.33 "Hg4 mi
8:20 PM12 °FCold.3 mph85%30.30 "Hg4 mi
7:20 PM14 °FCold.3 mph79%30.24 "Hg4 mi
6:20 PM16 °FCold.5 mph79%30.21 "Hg4 mi
5:20 PM19 °FCold.8 mph79%30.15 "Hg4 mi
4:20 PM23 °FCold.14 mph80%30.09 "Hg4 mi
3:20 PM23 °FCold.14 mph86%30.04 "Hg4 mi
2:20 PM23 °FCold.10 mph93%29.98 "Hg1 mi
1:20 PM25 °FCold.12 mph86%29.92 "Hg1 mi
12:20 PM25 °FCold.15 mph86%29.89 "Hg1 mi
11:20 AM25 °FCold.17 mph86%29.86 "Hg2 mi
10:20 AM25 °FCold.14 mph86%29.80 "Hg2 mi
9:20 AM25 °FCold.14 mph86%29.74 "Hg3 mi
8:20 AM25 °FCold.14 mph93%29.68 "Hg1 mi
7:20 AM27 °FChilly.9 mph93%29.65 "Hg1 mi
6:20 AM28 °FChilly.9 mph93%29.59 "Hg2 mi
5:20 AM30 °FChilly.1 mph100%29.56 "Hg1 mi
4:20 AM30 °FChilly.1 mph100%29.53 "Hg1 mi
3:20 AM30 °FChilly.2 mph100%29.50 "Hg1 mi
Weather by CustomWeather, © 2014

See weather overviewHow to use our weather pages